Location: McFarlands Corners
(41.4117°N, 81.3382°W)
Time: 17:17:38
(UTC+00:00)

Vanguard 1 Rocket - Pass Details

Date: 21 February 2026
Orbit: 653 x 4214 km, 34.3° (Epoch: 8 March)

Event Time Altitude Azimuth Distance (km) Brightness Sun altitude
Rises 22:24:23 0° 276° (W) 5,374 12.7 6.7°
Reaches altitude 10° 22:27:22 10° 271° (W) 4,744 12.7 6.2°
Maximum altitude 22:41:31 53° 200° (SSW) 3,770 10.9 3.7°
Drops below altitude 10° 23:04:52 10° 133° (SE) 7,386 11.7 -0.5°
Sets 23:11:05 0° 129° (SE) 8,441 11.9 -1.6°
